Location: ????????
(55.3939°N, 37.4780°E)
Time: 05:22:36
(UTC+00:00)

Geosat - Pass Details

Date: 14 April 2026
Orbit: 758 x 760 km, 108.0° (Epoch: 10 May)

Event Time Altitude Azimuth Distance (km) Brightness Sun altitude
Rises 17:47:42 0° 35° (NE) 3,233 7.2 -10.3°
Reaches altitude 10° 17:50:02 10° 40° (NE) 2,303 6.4 -10.6°
Maximum altitude 17:54:58 56° 118° (ESE) 908 4.1 -11.1°
Drops below altitude 10° 17:59:52 10° 197° (SSW) 2,288 6.3 -11.7°
Sets 18:02:10 0° 201° (SSW) 3,210 7.1 -11.9°
